This demonstration page uses our WeatherBlox Daily Observations layout. Learn more.

Left ArrowRight Arrow

39.51506, -84.39828

Hourly Observations for February 28, 2017

Temp ( °F °C ) Dew Point ( °F °C ) Humidity (%) Winds ( mph kmh ) Pressure ( in mb ) Visibility ( mi km ) Precip ( " mm )
12:15 am 00:15 Clear 42 5.5 36 2.1 79 79 undefined N/A 30.21 1023 N/A 0.00 0.00
12:35 am 00:35 Partly Cloudy 40 4.7 35 1.7 81 81 undefined N/A 30.24 1024 10 16 0.00 0.00
12:55 am 00:55 Clear 43 6 37 2.7 80 80 undefined N/A 30.18 1022 10 16 0.00 0.00
1:15 am 01:15 Clear 47 8.2 38 3.6 73 73 undefined N/A 30.18 1022 10 16 0.00 0.00
1:35 am 01:35 Clear 44 6.7 37 2.5 75 75 undefined N/A 30.18 1022 10 16 0.00 0.00
1:55 am 01:55 Clear 47 8.2 38 3.5 73 73 undefined N/A 30.15 1021 10 16 0.00 0.00
2:15 am 02:15 Clear 47 8.2 37 3 70 70 undefined N/A 30.15 1021 10 16 0.00 0.00
2:35 am 02:35 Clear 49 9.6 39 4 68 68 undefined N/A 30.15 1021 10 16 0.00 0.00
2:55 am 02:55 Clear 47 8.4 37 2.9 69 69 undefined N/A 30.15 1021 10 16 0.00 0.00
3:15 am 03:15 Clear 46 7.9 36 2.4 69 69 undefined N/A 30.12 1020 10 16 0.00 0.00
3:35 am 03:35 Clear 40 4.7 35 1.4 79 79 undefined N/A 30.18 1022 10 16 0.00 0.00
3:55 am 03:55 Partly Cloudy 42 5.5 36 2.2 80 80 undefined N/A 30.12 1020 10 16 0.00 0.00
4:15 am 04:15 Partly Cloudy 42 5.5 37 2.5 81 81 undefined N/A 30.12 1020 10 16 0.00 0.00
4:35 am 04:35 Partly Cloudy 42 5.3 36 2.2 81 81 undefined N/A 30.12 1020 10 16 0.00 0.00
4:55 am 04:55 Mostly Cloudy 41 5 36 2.1 82 82 undefined N/A 30.12 1020 10 16 0.00 0.00
5:15 am 05:15 Cloudy 42 5.5 37 2.5 81 81 undefined N/A 30.15 1021 10 16 0.00 0.00
5:35 am 05:35 Cloudy with Light Snow 49 9.6 41 4.9 73 73 undefined N/A 30.12 1020 10 16 0.00 0.00
5:55 am 05:55 Cloudy 49 9.6 41 5 73 73 undefined N/A 30.12 1020 10 16 0.00 0.00
6:15 am 06:15 Cloudy 49 9.6 41 5 73 73 undefined N/A 30.12 1020 10 16 0.00 0.00
6:35 am 06:35 Cloudy with Light Snow 49 9.6 42 5.4 75 75 undefined N/A 30.12 1020 7 11 0.00 0.00
6:55 am 06:55 Cloudy with Light Snow 49 9.6 43 5.9 78 78 undefined N/A 30.12 1020 3 5 0.00 0.00
7:15 am 07:15 Cloudy with Light Snow 47 8.2 41 5 80 80 undefined N/A 30.12 1020 3 4 0.00 0.00
7:35 am 07:35 Cloudy with Light Snow 47 8.2 41 5.2 82 82 undefined N/A 30.09 1019 4 6 0.00 0.00
7:55 am 07:55 Cloudy with Light Snow 49 9.6 44 6.6 82 82 undefined N/A 30.09 1019 3 5 0.00 0.00
8:15 am 08:15 Cloudy with Light Snow 49 9.6 44 6.6 82 82 undefined N/A 30.09 1019 3 5 0.00 0.00
8:35 am 08:35 Cloudy 49 9.6 44 6.6 82 82 undefined N/A 30.06 1018 7 11 0.00 0.00
8:55 am 08:55 Cloudy with Light Snow 49 9.6 44 6.8 83 83 undefined N/A 30.09 1019 5 8 0.00 0.00
9:15 am 09:15 Cloudy with Light Snow 49 9.6 44 6.7 82 82 undefined N/A 30.06 1018 5 8 0.00 0.00
9:35 am 09:35 Cloudy 49 9.6 44 6.8 83 83 undefined N/A 30.06 1018 10 16 0.00 0.00
9:55 am 09:55 Cloudy 52 11 46 8 82 82 undefined N/A 30.06 1018 10 16 0.00 0.00
10:15 am 10:15 Cloudy 52 11.1 46 7.9 81 81 undefined N/A 30.03 1017 10 16 0.00 0.00
10:35 am 10:35 Cloudy 54 12 48 8.9 82 82 undefined N/A 30.03 1017 10 16 0.00 0.00
10:55 am 10:55 Cloudy 55 12.5 49 9.2 80 80 undefined N/A 30.03 1017 N/A 0.00 0.00
11:15 am 11:15 Cloudy 55 12.5 49 9.2 80 80 undefined N/A 30.06 1018 N/A 0.00 0.00
11:35 am 11:35 Cloudy with Rain 55 12.5 49 9.5 82 82 undefined N/A 30.03 1017 5 8 0.00 0.00
11:55 am 11:55 Cloudy with Rain 55 12.5 49 9.5 82 82 undefined N/A 30.03 1017 5 8 0.00 0.00
12:15 pm 12:15 Cloudy 55 12.5 49 9.2 80 80 undefined N/A 30.03 1017 10 16 0.00 0.00
12:35 pm 12:35 Cloudy 55 12.5 48 9.1 80 80 undefined N/A 30.00 1016 10 16 0.00 0.00
12:55 pm 12:55 Cloudy 55 12.5 48 9.1 80 80 undefined N/A 30.00 1016 10 16 0.00 0.00
1:15 pm 13:15 Cloudy 56 13.6 50 10.1 80 80 undefined N/A 30.00 1016 10 16 0.00 0.00
1:35 pm 13:35 Cloudy 57 13.8 50 10.2 79 79 undefined N/A 29.97 1015 10 16 0.00 0.00
1:55 pm 13:55 Cloudy with Light Rain 57 13.8 50 10 78 78 undefined N/A 29.97 1015 10 16 0.00 0.00
2:15 pm 14:15 Cloudy with Light Rain 57 13.8 51 10.3 80 80 undefined N/A 29.97 1015 10 16 0.00 0.00
2:35 pm 14:35 Cloudy 57 13.8 51 10.5 81 81 undefined N/A 29.97 1015 10 16 0.00 0.00
2:55 pm 14:55 Cloudy with Light Rain 57 13.8 51 10.5 81 81 undefined N/A 29.94 1014 10 16 0.00 0.00
3:15 pm 15:15 Cloudy with Rain 57 13.8 51 10.6 81 81 undefined N/A 29.94 1014 7 11 0.00 0.00
3:35 pm 15:35 Cloudy with Drizzle 57 13.8 51 10.5 81 81 undefined N/A 29.94 1014 10 16 0.00 0.00
3:55 pm 15:55 Cloudy with Rain 57 13.8 52 11 83 83 undefined N/A 29.91 1013 3 4 0.00 0.00
4:15 pm 16:15 Cloudy with Rain 57 13.8 52 11 83 83 undefined N/A 29.94 1014 4 6 0.00 0.00
4:35 pm 16:35 Cloudy with Rain 57 13.8 52 11 83 83 undefined N/A 29.91 1013 5 8 0.00 0.00
4:55 pm 16:55 Cloudy with Light Rain 57 13.8 52 11 83 83 undefined N/A 29.91 1013 10 16 0.00 0.00
5:15 pm 17:15 Cloudy with Rain 57 13.8 52 11 83 83 undefined N/A 29.91 1013 10 16 0.00 0.00
5:35 pm 17:35 Cloudy 57 13.8 52 11 83 83 undefined N/A 29.91 1013 7 11 0.00 0.00
5:55 pm 17:55 Cloudy with Light Rain 57 13.8 52 11 83 83 undefined N/A 29.91 1013 10 16 0.00 0.00
6:15 pm 18:15 Cloudy 57 13.8 52 11 83 83 undefined N/A 29.88 1012 10 16 0.00 0.00
6:35 pm 18:35 Cloudy 57 13.8 52 11 83 83 undefined N/A 29.88 1012 10 16 0.00 0.00
7:15 pm 19:15 Cloudy 60 15.3 54 12.3 82 82 undefined N/A 29.85 1011 10 16 0.00 0.00
7:35 pm 19:35 Cloudy 60 15.3 55 12.5 84 84 undefined N/A 29.85 1011 7 11 0.00 0.00
7:55 pm 19:55 Cloudy 60 15.3 55 12.5 84 84 undefined N/A 29.83 1010 7 11 0.00 0.00
8:15 pm 20:15 Cloudy 60 15.3 54 12.3 82 82 undefined N/A 29.83 1010 10 16 0.00 0.00
8:35 pm 20:35 Cloudy 60 15.6 55 12.6 82 82 undefined N/A 29.83 1010 10 16 0.00 0.00
8:55 pm 20:55 Cloudy 61 16 55 12.7 81 81 undefined N/A 29.83 1010 10 16 0.00 0.00
9:15 pm 21:15 Cloudy 61 16.1 55 12.8 81 81 undefined N/A 29.83 1010 10 16 0.00 0.00
9:35 pm 21:35 Cloudy 62 16.6 56 13.1 80 80 undefined N/A 29.83 1010 10 16 0.00 0.00
9:55 pm 21:55 Cloudy 62 16.6 56 13.2 80 80 undefined N/A 29.83 1010 10 16 0.00 0.00
10:15 pm 22:15 Cloudy 62 16.6 56 13.1 80 80 undefined N/A 29.83 1010 10 16 0.00 0.00
10:35 pm 22:35 Cloudy 62 16.8 56 13.2 79 79 undefined N/A 29.80 1009 10 16 0.00 0.00
10:55 pm 22:55 Cloudy 63 17 56 13.5 80 80 undefined N/A 29.80 1009 10 16 0.00 0.00
11:15 pm 23:15 Cloudy 63 17.2 56 13.6 80 80 undefined N/A 29.80 1009 10 16 0.00 0.00
11:35 pm 23:35 Cloudy 63 17.4 57 13.7 79 79 undefined N/A 29.80 1009 10 16 0.00 0.00
11:55 pm 23:55 Cloudy 63 17.4 57 13.8 80 80 undefined N/A 29.77 1008 10 16 0.00 0.00

Powered by AerisWeather